{"data":{"norad_id":68818,"intl_designator":"2026-089S","name":"STARLINK-37450","alt_names":[],"object_type":"PAYLOAD","status":"ACTIVE","operator":null,"country":"US","launch_date":"2026-04-23","launch_site_code":"AFWTR","launch_vehicle":null,"mission":null,"orbit_class":"UNKNOWN","rcs_meters":null,"size_class":null,"mass_kg":null,"dimensions":null,"purposes":["comms"],"wikipedia_slug":null,"has_3d_model":false,"image_url":null,"decayed_at":null,"tle_current":{"epoch":"2026-05-25T02:36:04.037184Z","epoch_age_seconds":58973,"freshness":"FRESH","line1":"1 68818U 26089S   26145.10838006  .00215022  00000+0  14062-2 0  9996","line2":"2 68818  97.2854 351.7688 0002346  94.5237 265.6296 15.75193892  5068","mean_motion":15.75193892,"eccentricity":0.0002346,"inclination_deg":97.2854,"raan_deg":351.7688,"arg_perigee_deg":94.5237,"mean_anomaly_deg":265.6296,"bstar":0.0014062,"rev_number":506,"period_min":91.417317405393,"perigee_km":342.50246380686,"apogee_km":345.65652778668,"semimajor_km":6722.2164957968,"source":"CELESTRAK","updated_at":"2026-05-25T13:38:22.043438Z"}}}